Weather History for Pecs, Hungary

Change the Weather History Date:

Saturday, September 22, 2012

  Actual Average Record
Temperature  
Mean Temperature 57 °F -  
Max Temperature 72 °F 65 °F - ()
Min Temperature 42 °F 47 °F - ()
Degree Days  
Heating Degree Days 8    
Growing Degree Days 7 (Base 50)    
Moisture  
Dew Point 43 °F    
Average Humidity 54    
Maximum Humidity 81    
Minimum Humidity 28    
Precipitation  
Precipitation 0.00 in 0.05 in - ()
Sea Level Pressure  
Sea Level Pressure 30.03 in    
Wind  
Wind Speed 5 mph ()    
Max Wind Speed 12 mph    
Max Gust Speed 18 mph    
T = Trace of Precipitation, MM = Missing Value Source: Averaged Metar Reports

Daily Weather History Graph

Daily Weather History Graph

Search for Another Location

Airport:

Trip Planner

Search our weather history database for the weather conditions in past years. The results will help you decide how hot, cold, wet, or windy it might be!

Date:

Astronomy

Sep. 22, 2012 Rise Set
Actual Time 6:34 AM CEST 6:44 PM CEST
Civil Twilight 6:04 AM CEST 7:13 PM CEST
Nautical Twilight 5:29 AM CEST 7:48 PM CEST
Astronomical Twilight 4:53 AM CEST 8:24 PM CEST
Moon 1:55 PM CEST (9/22) 11:10 PM CEST (9/22)
Length of Visible Light 13h 09m
Length of Day
12h 09m
Waxing Crescent, 45% of the Moon is Illuminated
Sep 22
Waxing Crescent
Sep 22
First Quarter
Sep 30
Full
Oct 8
Last Quarter
Oct 15
New

Hourly Weather History & Observations

Time (CEST) Temp. Windchill Dew Point Humidity Pressure Visibility Wind Dir Wind Speed Gust Speed Precip Events Conditions
12:45 AM 48.2 °F - 35.6 °F 62% 30.12 in - SE 2.3 mph - N/A   Clear
1:45 AM 48.2 °F - 35.6 °F 62% 30.12 in - SSE 2.3 mph - N/A   Clear
2:00 AM 48 °F - 36 °F 53% 30.13 in 47 mi SSE 2.2 mph - -   Partly Cloudy
2:45 AM 46.4 °F 44.3 °F 35.6 °F 66% 30.09 in - SSE 4.6 mph - N/A   Clear
3:45 AM 44.6 °F 42.2 °F 35.6 °F 71% 30.06 in - ESE 4.6 mph - N/A   Clear
4:45 AM 44.6 °F 42.2 °F 35.6 °F 71% 30.06 in - ESE 4.6 mph - N/A   Clear
5:45 AM 42.8 °F 39.3 °F 35.6 °F 76% 30.04 in - ESE 5.8 mph - N/A   Clear
6:15 AM 44.6 °F 40.7 °F 35.6 °F 71% 30.04 in - SE 6.9 mph - N/A   Clear
6:45 AM 42.8 °F 39.3 °F 35.6 °F 76% 30.04 in - ESE 5.8 mph - N/A   Clear
7:00 AM - - - N/A% - - South 8.1 mph - N/A   Clear
7:15 AM 42.8 °F 39.3 °F 37.4 °F 81% 30.04 in - ESE 5.8 mph - N/A   Clear
7:45 AM 46.4 °F 43.5 °F 39.2 °F 76% 30.04 in - East 5.8 mph - N/A   Clear
8:00 AM 46 °F - 38 °F 66% 30.05 in 44 mi East 6.7 mph - -   Partly Cloudy
8:15 AM 48.2 °F - 39.2 °F 71% 30.04 in - East 5.8 mph - N/A   Clear
8:45 AM 51.8 °F - 41.0 °F 67% 30.04 in - East 4.6 mph - N/A   Clear
9:15 AM 55.4 °F - 41.0 °F 58% 30.04 in - SE 4.6 mph - N/A   Clear
9:45 AM 59.0 °F - 39.2 °F 48% 30.01 in - SE 3.5 mph - N/A   Clear
10:00 AM - - - N/A% - - SSE 6.9 mph - N/A   Clear
10:15 AM 62.6 °F - 41.0 °F 45% 30.04 in - East 1.2 mph - N/A   Clear
11:15 AM 66.2 °F - 42.8 °F 43% 30.01 in - SW 4.6 mph - N/A   Clear
11:45 AM 66.2 °F - 42.8 °F 43% 30.01 in - SW 6.9 mph - N/A   Clear
12:15 PM 68.0 °F - 42.8 °F 40% 30.01 in - SW 5.8 mph - N/A   Clear
12:45 PM 68.0 °F - 42.8 °F 40% 30.01 in - SW 6.9 mph 18.4 mph N/A   Clear
1:00 PM - - - N/A% - - WSW 6.9 mph - N/A   Clear
1:15 PM 68.0 °F - 42.8 °F 40% 30.01 in - WSW 6.9 mph - N/A   Clear
1:45 PM 69.8 °F - 42.8 °F 38% 29.98 in - SSW 9.2 mph - N/A   Clear
2:00 PM 69 °F - 44 °F 28% 29.97 in 44 mi SSW 8.9 mph - -   Partly Cloudy
2:15 PM 71.6 °F - 44.6 °F 38% 29.98 in - SSW 8.1 mph - N/A   Clear
2:45 PM 69.8 °F - 42.8 °F 38% 29.98 in - WSW 11.5 mph - N/A   Clear
3:15 PM 69.8 °F - 44.6 °F 40% 29.98 in - WSW 10.4 mph - N/A   Clear
3:45 PM 71.6 °F - 46.4 °F 41% 29.98 in - West 11.5 mph - N/A   Clear
4:00 PM - - - N/A% - - West 9.2 mph - N/A   Clear
4:15 PM 71.6 °F - 46.4 °F 41% 29.98 in - West 11.5 mph - N/A   Clear
4:45 PM 71.6 °F - 48.2 °F 43% 29.98 in - West 8.1 mph - N/A   Clear
5:15 PM 71.6 °F - 48.2 °F 43% 29.98 in - West 9.2 mph - N/A   Clear
5:45 PM 71.6 °F - 48.2 °F 43% 29.98 in - West 8.1 mph - N/A   Clear
6:15 PM 69.8 °F - 48.2 °F 46% 30.01 in - WNW 6.9 mph - N/A   Clear
6:45 PM 68.0 °F - 48.2 °F 49% 30.01 in - WNW 5.8 mph - N/A   Clear
7:15 PM 68.0 °F - 48.2 °F 49% 30.01 in - WNW 4.6 mph - N/A   Clear
7:45 PM 66.2 °F - 48.2 °F 52% 30.01 in - WNW 4.6 mph - N/A   Clear
8:00 PM 66 °F - 48 °F 42% 30.01 in 44 mi WNW 4.5 mph - -   Partly Cloudy
8:15 PM 66.2 °F - 48.2 °F 52% 30.04 in - WNW 3.5 mph - N/A   Clear
8:45 PM 64.4 °F - 48.2 °F 56% 30.04 in - West 3.5 mph - N/A   Clear
9:15 PM 66.2 °F - 48.2 °F 52% 30.04 in - WNW 3.5 mph - N/A   Clear
9:45 PM 62.6 °F - 48.2 °F 59% 30.04 in - NW 3.5 mph - N/A   Clear
10:45 PM 64.4 °F - 50.0 °F 59% 30.04 in - WNW 4.6 mph - N/A   Clear
11:45 PM 62.6 °F - 51.8 °F 68% 30.06 in - WNW 5.8 mph - N/A   Clear